Weather History for San Jose, Costa Rica

Change the Weather History Date:

Wednesday, June 19, 2013

  Actual Average Record
Temperature  
Mean Temperature 73 °F -  
Max Temperature 81 °F 80 °F 87 °F (2014)
Min Temperature 65 °F 65 °F 62 °F (2008)
Cooling Degree Days 8    
Growing Degree Days 23 (Base 50)    
Moisture  
Dew Point 66 °F    
Average Humidity 83    
Maximum Humidity 100    
Minimum Humidity 51    
Precipitation  
Precipitation 1.06 in 0.29 in - ()
Sea Level Pressure  
Sea Level Pressure 29.91 in    
Wind  
Wind Speed 5 mph ()    
Max Wind Speed 14 mph    
Max Gust Speed -    
Visibility 6.9 miles    
Events Fog , Rain , Thunderstorm    
Averages and records for this station are not official NWS values.
T = Trace of Precipitation, MM = Missing Value Source: Averaged Metar Reports

Daily Weather History Graph

Daily Weather History Graph

Search for Another Location

Airport:

Trip Planner

Search our weather history database for the weather conditions in past years. The results will help you decide how hot, cold, wet, or windy it might be!

Date:

Astronomy

Jun. 19, 2013 Rise Set
Actual Time 5:17 AM CST 5:59 PM CST
Civil Twilight 4:53 AM CST 6:22 PM CST
Nautical Twilight 4:26 AM CST 6:49 PM CST
Astronomical Twilight 3:59 AM CST 7:17 PM CST
Moon 2:17 PM CST (6/19) 1:28 AM CST (6/19)
Length of Visible Light 13h 28m
Length of Day
12h 42m
Waxing Gibbous, 81% of the Moon is Illuminated
Jun 19
Waxing Gibbous
Jun 23
Full
Jun 29
Last Quarter
Jul 8
New
Jul 15
First Quarter

Hourly Weather History & Observations

Time (CST) Temp. Heat Index Dew Point Humidity Pressure Visibility Wind Dir Wind Speed Gust Speed Precip Events Conditions
12:00 AM 68 °F - 64 °F 83% 29.82 in 12 mi East 5.8 mph - -   Mostly Cloudy
12:00 AM 68.0 °F - 64.4 °F 88% 29.95 in - East 5.8 mph - N/A   Clear
1:00 AM 69.8 °F - 62.6 °F 78% 29.92 in - East 9.2 mph - N/A   Clear
2:00 AM 71.6 °F - 62.6 °F 73% 29.87 in - East 11.5 mph - N/A   Clear
3:00 AM 70 °F - 62 °F 69% 29.74 in 12 mi SE 4.6 mph - -   Partly Cloudy
3:00 AM 69.8 °F - 62.6 °F 78% 29.89 in - SE 4.6 mph - N/A   Clear
4:00 AM 66.2 °F - 62.6 °F 88% 29.90 in - NW 3.5 mph - N/A   Clear
5:00 AM 66.2 °F - 62.6 °F 88% 29.93 in 6.2 mi NW 3.5 mph - N/A   Mostly Cloudy
6:00 AM 67 °F - 63 °F 83% 29.82 in 12 mi ENE 3.5 mph - -   Overcast
6:00 AM 68.0 °F - 62.6 °F 83% 29.96 in 6.2 mi ENE 3.5 mph - N/A   Mostly Cloudy
7:00 AM 71.6 °F - 64.4 °F 78% 29.96 in 6.2 mi ESE 2.3 mph - N/A   Mostly Cloudy
8:00 AM 77.0 °F - 64.4 °F 65% 29.96 in 6.2 mi North 3.5 mph - N/A   Mostly Cloudy
9:00 AM 76 °F - 61 °F 51% 29.83 in 12 mi East 13.8 mph - -   Scattered Clouds
9:00 AM 78.8 °F - 66.2 °F 65% 29.97 in 6.2 mi WSW 5.8 mph - N/A   Scattered Clouds
10:00 AM 78.8 °F - 68.0 °F 69% 29.97 in 6.2 mi WSW 6.9 mph - N/A   Scattered Clouds
11:00 AM 78.8 °F - 66.2 °F 65% 29.96 in 6.2 mi West 9.2 mph - N/A   Scattered Clouds
12:00 PM 80 °F - 68 °F 58% 29.79 in 12 mi WSW 9.2 mph - -   Partly Cloudy
12:00 PM 80.6 °F 83.2 °F 68.0 °F 65% 29.95 in 6.2 mi WSW 9.2 mph - N/A   Scattered Clouds
12:44 PM 73.4 °F - 69.8 °F 88% 29.94 in - West 11.5 mph - N/A Rain Rain
1:00 PM 73.4 °F - 69.8 °F 88% 29.94 in 6.2 mi WSW 11.5 mph - N/A   Mostly Cloudy
2:00 PM 73.4 °F - 69.8 °F 88% 29.93 in - West 6.9 mph - N/A Rain Light Rain
2:20 PM 71.6 °F - 69.8 °F 94% 29.93 in 4.3 mi WSW 4.6 mph - N/A Rain , Thunderstorm Light Thunderstorms and Rain
2:38 PM - - - N/A% 29.93 in 1.2 mi SE 3.5 mph - N/A Rain , Thunderstorm Heavy Thunderstorms and Rain
3:00 PM 68 °F - 67 °F 95% 29.77 in 2 mi WNW 8.1 mph - - Rain , Thunderstorm Thunderstorms and Rain
3:00 PM 68.0 °F - 66.2 °F 94% 29.91 in 2.5 mi WNW 8.1 mph - N/A Rain , Thunderstorm Light Thunderstorms and Rain
3:20 PM 69.8 °F - 66.2 °F 88% 29.91 in 4.3 mi South 4.6 mph - N/A Fog , Thunderstorm Patches of Fog
4:00 PM 68.0 °F - 66.2 °F 94% 29.91 in 5.0 mi WNW 4.6 mph - N/A Fog Fog
5:00 PM 68.0 °F - 66.2 °F 94% 29.95 in 6.2 mi NNW 2.3 mph - N/A Fog Mostly Cloudy
6:00 PM 69 °F - 66 °F 89% 29.79 in 9 mi ENE 3.5 mph - -   Partly Cloudy
6:00 PM 68.0 °F - 66.2 °F 94% 29.92 in 6.2 mi ENE 3.5 mph - N/A   Mostly Cloudy
7:00 PM 68.0 °F - 66.2 °F 94% 29.93 in - East 3.5 mph - N/A   Clear
8:00 PM 68.0 °F - 66.2 °F 94% 29.95 in - North 3.5 mph - N/A   Clear
9:00 PM 67 °F - 66 °F 95% 29.83 in 12 mi West 3.5 mph - -   Scattered Clouds
9:00 PM 68.0 °F - 66.2 °F 94% 29.98 in 6.2 mi West 3.5 mph - N/A   Scattered Clouds
10:00 PM 66.2 °F - 66.2 °F 100% 30.00 in 6.2 mi Calm Calm - N/A   Scattered Clouds
11:00 PM 66.2 °F - 64.4 °F 94% 29.99 in 6.2 mi NNE 3.5 mph - N/A   Scattered Clouds